Вернуться в каталог

THOR ABLESTAR DEB

АктивенLEO
NORAD 470·DEBRIS·🇺🇸 United States

Запущен Jun 29, 1961 с Cape Canaveral Space Force Station

Loading…

Ближайшие Пролёты (ближайшие 24 часа)

TLE

СвежийSource: Space-Track

Эпоха: Sep 14, 2026, 15:40 UTC

1 00470U 61015FG  26257.65301637  .00000625  00000-0  39639-3 0  9993
2 00470  66.2309  42.7999 0074188 271.6028  87.6559 14.09427115325007

Отслеживайте THOR ABLESTAR DEB в реальном времени с AllMySat

Download on the App Store